Fredericksburg, TX

6:02 AM CDT on July 24, 2017 (GMT -0500)
Fredericksburg

Weather History for KT82 - December, 2012

Change the Weather History Date:

Monday, December 10, 2012

  Actual Average (KSAT) Record (KSAT)
Temperature  
Mean Temperature 38 °F -  
Max Temperature 48 °F 63 °F 85 °F (1939)
Min Temperature 28 °F 42 °F 18 °F (1978)
Degree Days  
Heating Degree Days 26    
Moisture  
Dew Point 19 °F    
Average Humidity 48    
Maximum Humidity 70    
Minimum Humidity 33    
Precipitation  
Precipitation 0.00 in - - ()
Sea Level Pressure  
Sea Level Pressure 30.09 in    
Wind  
Wind Speed 15 mph (North)    
Max Wind Speed 26 mph    
Max Gust Speed 38 mph    
Visibility 10 miles    
Events      
Averages and records for this station are not official NWS values.
T = Trace of Precipitation, MM = Missing Value Source: NWS Daily Summary

Daily Weather History Graph

Daily Weather History Graph

Search for Another Location

Airport or City:

Trip Planner

Search our weather history database for the weather conditions in past years. The results will help you decide how hot, cold, wet, or windy it might be!

Date:

Astronomy

Dec. 10, 2012 Rise Set
Actual Time 7:21 AM CST 5:35 PM CST
Civil Twilight 6:55 AM CST 6:02 PM CST
Nautical Twilight 6:25 AM CST 6:32 PM CST
Astronomical Twilight 5:56 AM CST 7:01 PM CST
Moon 4:14 AM CST (12/10) 3:20 PM CST (12/10)
Length of Visible Light 11h 06m
Length of Day
10h 14m
Waning Crescent, 10% of the Moon is Illuminated
Dec 10
Waning Crescent
Dec 13
New
Dec 19
First Quarter
Dec 28
Full
Jan 4
Last Quarter

Hourly Weather History & Observations

Time (CST) Temp. Windchill Dew Point Humidity Pressure Visibility Wind Dir Wind Speed Gust Speed Precip Events Conditions
12:15 AM 48.7 °F - 39.2 °F 70% 29.98 in 10.0 mi North 12.7 mph 17.3 mph N/A   Overcast
12:35 AM 48.2 °F - 37.8 °F 67% 29.98 in 10.0 mi North 21.9 mph 25.3 mph N/A   Overcast
12:55 AM 47.7 °F - 35.6 °F 63% 29.99 in 10.0 mi NNE 13.8 mph 19.6 mph N/A   Overcast
1:15 AM 46.9 °F - 33.8 °F 60% 30.00 in 10.0 mi North 16.1 mph 24.2 mph N/A   Overcast
1:55 AM 44.8 °F 37.1 °F 31.1 °F 59% 30.02 in 10.0 mi North 18.4 mph 28.8 mph N/A   Overcast
2:15 AM 42.6 °F 33.8 °F 25.3 °F 51% 30.03 in 10.0 mi North 20.7 mph 29.9 mph N/A   Overcast
2:35 AM 40.3 °F 29.7 °F 19.9 °F 44% 30.06 in 10.0 mi North 25.3 mph 33.4 mph N/A   Overcast
2:55 AM 38.8 °F 27.6 °F 17.6 °F 42% 30.06 in 10.0 mi North 26.5 mph 32.2 mph N/A   Overcast
3:15 AM 38.3 °F 29.0 °F 16.7 °F 42% 30.07 in 10.0 mi North 17.3 mph 32.2 mph N/A   Overcast
3:55 AM 36.0 °F 26.0 °F 14.7 °F 42% 30.10 in 10.0 mi North 17.3 mph 38.0 mph N/A   Overcast
4:15 AM 35.6 °F 24.0 °F 14.4 °F 42% 30.11 in 10.0 mi North 23.0 mph 35.7 mph N/A   Overcast
4:35 AM 34.9 °F 24.2 °F 14.0 °F 42% 30.10 in 10.0 mi North 18.4 mph 28.8 mph N/A   Overcast
4:55 AM 34.5 °F 22.0 °F 13.1 °F 41% 30.10 in 10.0 mi North 25.3 mph - N/A   Overcast
5:15 AM 34.7 °F 23.4 °F 13.1 °F 41% 30.11 in 10.0 mi NNW 20.7 mph 26.5 mph N/A   Overcast
5:35 AM 34.7 °F 25.1 °F 13.1 °F 41% 30.09 in 10.0 mi North 15.0 mph 19.6 mph N/A   Overcast
5:55 AM 34.9 °F 24.9 °F 13.1 °F 41% 30.10 in 10.0 mi North 16.1 mph 20.7 mph N/A   Overcast
6:15 AM 34.7 °F 25.1 °F 12.7 °F 40% 30.10 in 10.0 mi North 15.0 mph 21.9 mph N/A   Overcast
6:35 AM 33.4 °F 23.9 °F 12.6 °F 42% 30.11 in 10.0 mi NNW 13.8 mph 20.7 mph N/A   Mostly Cloudy
6:55 AM 32.9 °F 24.1 °F 12.6 °F 43% 30.11 in 10.0 mi North 11.5 mph - N/A   Scattered Clouds
7:15 AM 32.7 °F 23.9 °F 12.7 °F 44% 30.11 in 10.0 mi North 11.5 mph - N/A   Clear
7:35 AM 33.4 °F 23.1 °F 12.6 °F 42% 30.11 in 10.0 mi North 16.1 mph 19.6 mph N/A   Clear
7:55 AM 33.8 °F 24.3 °F 12.7 °F 42% 30.13 in 10.0 mi North 13.8 mph 23.0 mph N/A   Clear
8:15 AM 34.2 °F 23.6 °F 12.9 °F 42% 30.13 in 10.0 mi North 17.3 mph 23.0 mph N/A   Clear
8:35 AM 34.7 °F 23.4 °F 12.9 °F 41% 30.14 in 10.0 mi North 20.7 mph - N/A   Clear
8:55 AM 35.2 °F 25.0 °F 14.4 °F 42% 30.14 in 10.0 mi North 17.3 mph 24.2 mph N/A   Clear
9:35 AM 36.9 °F 27.8 °F 18.7 °F 48% 30.14 in 10.0 mi North 15.0 mph 21.9 mph N/A   Clear
9:55 AM 37.0 °F 27.0 °F 21.7 °F 54% 30.14 in 10.0 mi North 18.4 mph 26.5 mph N/A   Clear
10:15 AM 37.8 °F 28.6 °F 23.0 °F 55% 30.14 in 10.0 mi North 16.1 mph 24.2 mph N/A   Clear
10:55 AM 38.5 °F 29.6 °F 23.7 °F 55% 30.14 in 10.0 mi North 16.1 mph 19.6 mph N/A   Clear
11:15 AM 40.8 °F 33.7 °F 24.6 °F 53% 30.15 in 10.0 mi NNW 12.7 mph 18.4 mph N/A   Clear
11:35 AM 41.2 °F 33.0 °F 24.3 °F 51% 30.14 in 10.0 mi NNW 16.1 mph 19.6 mph N/A   Clear
11:55 AM 41.4 °F 33.6 °F 24.3 °F 51% 30.14 in 10.0 mi NW 15.0 mph 19.6 mph N/A   Clear
12:15 PM 41.5 °F 33.5 °F 23.7 °F 49% 30.13 in 10.0 mi North 16.1 mph 23.0 mph N/A   Clear
12:35 PM 43.0 °F 35.4 °F 22.8 °F 45% 30.12 in 10.0 mi NNW 16.1 mph 20.7 mph N/A   Clear
12:55 PM 42.8 °F 34.8 °F 22.5 °F 45% 30.11 in 10.0 mi NNW 17.3 mph 21.9 mph N/A   Clear
1:15 PM 44.6 °F 37.4 °F 22.1 °F 41% 30.09 in 10.0 mi North 16.1 mph - N/A   Clear
1:55 PM 45.9 °F 39.7 °F 22.5 °F 40% 30.07 in 10.0 mi North 13.8 mph 18.4 mph N/A   Clear
2:15 PM 46.6 °F - 21.9 °F 38% 30.06 in 10.0 mi North 19.6 mph 23.0 mph N/A   Clear
2:35 PM 47.3 °F - 20.8 °F 35% 30.05 in 10.0 mi NNE 17.3 mph 24.2 mph N/A   Clear
2:55 PM 46.6 °F - 19.6 °F 34% 30.05 in 10.0 mi North 18.4 mph 24.2 mph N/A   Clear
3:15 PM 46.4 °F 40.1 °F 19.2 °F 34% 30.06 in 10.0 mi NNW 15.0 mph - N/A   Clear
3:35 PM 46.6 °F - 19.2 °F 34% 30.06 in 10.0 mi North 12.7 mph 18.4 mph N/A   Clear
3:55 PM 46.0 °F 40.2 °F 19.2 °F 34% 30.05 in 10.0 mi North 12.7 mph 16.1 mph N/A   Clear
4:15 PM 45.7 °F 39.8 °F 17.6 °F 33% 30.05 in 10.0 mi North 12.7 mph - N/A   Clear
4:35 PM 45.5 °F 40.3 °F 17.4 °F 33% 30.05 in 10.0 mi North 10.4 mph - N/A   Clear
4:55 PM 43.9 °F 38.3 °F 16.3 °F 33% 30.06 in 10.0 mi North 10.4 mph - N/A   Clear
5:15 PM 43.0 °F 37.7 °F 16.2 °F 34% 30.06 in 10.0 mi North 9.2 mph - N/A   Clear
5:35 PM 40.1 °F 36.1 °F 15.8 °F 37% 30.06 in 10.0 mi North 5.8 mph - N/A   Clear
5:55 PM 37.9 °F 33.5 °F 15.4 °F 40% 30.06 in 10.0 mi NNW 5.8 mph - N/A   Clear
6:15 PM 34.5 °F 30.4 °F 15.3 °F 45% 30.06 in 10.0 mi NNW 4.6 mph - N/A   Clear
6:35 PM 35.1 °F 31.0 °F 16.2 °F 46% 30.07 in 10.0 mi NNW 4.6 mph - N/A   Clear
6:55 PM 33.8 °F 30.8 °F 16.9 °F 50% 30.08 in 10.0 mi NNW 3.5 mph - N/A   Clear
7:15 PM 34.5 °F 30.4 °F 17.2 °F 49% 30.08 in 10.0 mi NNW 4.6 mph - N/A   Clear
7:35 PM 32.0 °F 27.5 °F 17.8 °F 56% 30.09 in 10.0 mi NNW 4.6 mph - N/A   Clear
7:55 PM 29.3 °F 24.3 °F 18.1 °F 63% 30.09 in 10.0 mi NNW 4.6 mph - N/A   Clear
8:15 PM 30.4 °F 25.6 °F 18.5 °F 61% 30.09 in 10.0 mi North 4.6 mph - N/A   Clear
8:35 PM 31.8 °F - 18.1 °F 57% 30.10 in 10.0 mi Calm Calm - N/A   Clear
8:55 PM 30.2 °F - 18.5 °F 62% 30.10 in 10.0 mi Calm Calm - N/A   Clear
9:15 PM 30.0 °F 26.5 °F 19.4 °F 65% 30.10 in 10.0 mi NNW 3.5 mph - N/A   Clear
9:35 PM 31.5 °F - 19.0 °F 60% 30.10 in 10.0 mi Calm Calm - N/A   Clear
9:55 PM 31.5 °F - 18.0 °F 57% 30.11 in 10.0 mi Calm Calm - N/A   Clear
10:15 PM 31.3 °F - 18.7 °F 60% 30.11 in 10.0 mi Calm Calm - N/A   Clear
10:35 PM 30.0 °F 25.2 °F 19.8 °F 66% 30.10 in 10.0 mi NNW 4.6 mph - N/A   Clear
10:55 PM 29.8 °F - 20.1 °F 67% 30.10 in 10.0 mi Calm Calm - N/A   Clear
11:15 PM 30.0 °F - 18.5 °F 62% 30.10 in 10.0 mi Calm Calm - N/A   Clear
11:55 PM 28.4 °F 24.6 °F 18.9 °F 67% 30.09 in 10.0 mi North 3.5 mph - N/A   Clear